Fosston, MN

2:39 AM CDT on May 26, 2017 (GMT -0500)
Fosston Municipal

Weather History for KFSE - June, 2013

Change the Weather History Date:

Wednesday, June 19, 2013

  Actual Average Record
Temperature  
Mean Temperature 70 °F -  
Max Temperature 82 °F 73 °F 87 °F (1966)
Min Temperature 57 °F 50 °F 39 °F (1980)
Cooling Degree Days 4    
Growing Degree Days 20 (Base 50)    
Moisture  
Dew Point 54 °F    
Average Humidity 56    
Maximum Humidity 88    
Minimum Humidity 37    
Precipitation  
Precipitation 0.00 in - - ()
Sea Level Pressure  
Sea Level Pressure 29.95 in    
Wind  
Wind Speed 7 mph (SSE)    
Max Wind Speed 14 mph    
Max Gust Speed 18 mph    
Visibility 10 miles    
Events      
Averages and records for this station are not official NWS values.
T = Trace of Precipitation, MM = Missing Value Source: NWS Daily Summary

Daily Weather History Graph

Daily Weather History Graph

Search for Another Location

Airport or City:

Trip Planner

Search our weather history database for the weather conditions in past years. The results will help you decide how hot, cold, wet, or windy it might be!

Date:

Astronomy

Jun. 19, 2013 Rise Set
Actual Time 5:25 AM CDT 9:24 PM CDT
Civil Twilight 4:44 AM CDT 10:04 PM CDT
Nautical Twilight 3:47 AM CDT 11:01 PM CDT
Astronomical Twilight 2:17 AM CDT 12:32 AM CDT
Moon 5:06 PM CDT (6/19) 2:25 AM CDT (6/19)
Length of Visible Light 17h 20m
Length of Day
15h 59m
Waxing Gibbous, 80% of the Moon is Illuminated
Jun 19
Waxing Gibbous
Jun 23
Full
Jun 29
Last Quarter
Jul 8
New
Jul 15
First Quarter

Hourly Weather History & Observations

Time (CDT) Temp. Heat Index Dew Point Humidity Pressure Visibility Wind Dir Wind Speed Gust Speed Precip Events Conditions
12:15 AM 60.8 °F - 46.4 °F 59% 30.00 in 10.0 mi SE 4.6 mph - N/A   Unknown
12:36 AM 62.6 °F - 48.2 °F 59% 30.00 in 10.0 mi SE 6.9 mph - N/A   Mostly Cloudy
12:55 AM 62.6 °F - 48.2 °F 59% 30.00 in 10.0 mi SE 4.6 mph - N/A   Overcast
1:15 AM 62.6 °F - 48.2 °F 59% 30.00 in 10.0 mi SE 3.5 mph - N/A   Overcast
1:36 AM 62.6 °F - 48.2 °F 59% 30.00 in 10.0 mi SE 6.9 mph - N/A   Overcast
1:55 AM 62.6 °F - 48.2 °F 59% 30.00 in 10.0 mi SE 6.9 mph - N/A   Unknown
2:15 AM 60.8 °F - 46.4 °F 59% 29.99 in 10.0 mi SE 6.9 mph - N/A   Overcast
2:36 AM 60.8 °F - 46.4 °F 59% 29.99 in 10.0 mi SE 8.1 mph - N/A   Overcast
2:55 AM 60.8 °F - 46.4 °F 59% 29.99 in 10.0 mi SE 6.9 mph - N/A   Overcast
3:15 AM 60.8 °F - 46.4 °F 59% 29.99 in 10.0 mi SE 4.6 mph - N/A   Overcast
3:36 AM 60.8 °F - 48.2 °F 63% 29.99 in 10.0 mi SSE 6.9 mph - N/A   Overcast
3:55 AM 60.8 °F - 48.2 °F 63% 29.99 in 10.0 mi SSE 5.8 mph - N/A   Scattered Clouds
4:15 AM 59.0 °F - 50.0 °F 72% 30.00 in 10.0 mi SSE 5.8 mph - N/A   Mostly Cloudy
4:36 AM 59.0 °F - 51.8 °F 77% 30.00 in 10.0 mi SSE 5.8 mph - N/A   Unknown
4:55 AM 57.2 °F - 51.8 °F 82% 29.99 in 10.0 mi SSE 5.8 mph - N/A   Mostly Cloudy
5:15 AM 59.0 °F - 51.8 °F 77% 29.99 in 10.0 mi SSE 6.9 mph - N/A   Scattered Clouds
5:35 AM 57.2 °F - 51.8 °F 82% 29.98 in 10.0 mi SSE 6.9 mph - N/A   Clear
5:55 AM 59.0 °F - 51.8 °F 77% 29.98 in 10.0 mi SSE 5.8 mph - N/A   Clear
6:15 AM 57.2 °F - 53.6 °F 88% 29.98 in 10.0 mi SSE 6.9 mph - N/A   Clear
6:35 AM 60.8 °F - 53.6 °F 77% 29.99 in 10.0 mi South 6.9 mph - N/A   Clear
6:55 AM 62.6 °F - 55.4 °F 77% 29.99 in 10.0 mi Calm Calm - N/A   Scattered Clouds
7:15 AM 62.6 °F - 55.4 °F 77% 30.00 in 10.0 mi South 5.8 mph - N/A   Mostly Cloudy
7:35 AM 64.4 °F - 55.4 °F 73% 30.00 in 10.0 mi South 9.2 mph - N/A   Overcast
7:55 AM 64.4 °F - 55.4 °F 73% 30.00 in 10.0 mi South 8.1 mph - N/A   Overcast
8:15 AM 66.2 °F - 55.4 °F 68% 29.99 in 10.0 mi South 10.4 mph - N/A   Unknown
8:35 AM 69.8 °F - 55.4 °F 60% 29.99 in 10.0 mi South 9.2 mph - N/A   Unknown
8:55 AM 69.8 °F - 55.4 °F 60% 29.98 in 10.0 mi South 10.4 mph - N/A   Unknown
9:15 AM 69.8 °F - 57.2 °F 64% 29.98 in 10.0 mi South 11.5 mph - N/A   Clear
9:35 AM 71.6 °F - 57.2 °F 60% 29.98 in 10.0 mi SSW 9.2 mph - N/A   Clear
9:55 AM 73.4 °F - 57.2 °F 57% 29.99 in 10.0 mi South 8.1 mph - N/A   Clear
10:15 AM 75.2 °F - 57.2 °F 53% 29.98 in 10.0 mi South 10.4 mph - N/A   Clear
10:35 AM 75.2 °F - 57.2 °F 53% 29.97 in 10.0 mi SSW 8.1 mph - N/A   Clear
10:55 AM 75.2 °F - 57.2 °F 53% 29.98 in 10.0 mi SSW 9.2 mph - N/A   Clear
11:15 AM 77.0 °F - 55.4 °F 47% 29.97 in 10.0 mi South 8.1 mph 16.1 mph N/A   Clear
11:35 AM 77.0 °F - 57.2 °F 50% 29.97 in 10.0 mi SSW 12.7 mph - N/A   Scattered Clouds
11:55 AM 77.0 °F - 57.2 °F 50% 29.96 in 10.0 mi South 10.4 mph - N/A   Scattered Clouds
12:15 PM 78.8 °F - 55.4 °F 44% 29.96 in 10.0 mi South 13.8 mph - N/A   Scattered Clouds
12:36 PM 78.8 °F - 55.4 °F 44% 29.95 in 10.0 mi South 10.4 mph - N/A   Scattered Clouds
12:55 PM 78.8 °F - 55.4 °F 44% 29.94 in 10.0 mi South 12.7 mph 16.1 mph N/A   Scattered Clouds
1:15 PM 80.6 °F 80.5 °F 55.4 °F 42% 29.94 in 10.0 mi South 9.2 mph - N/A   Scattered Clouds
1:36 PM 80.6 °F 80.5 °F 55.4 °F 42% 29.94 in 10.0 mi South 10.4 mph 18.4 mph N/A   Scattered Clouds
1:55 PM 80.6 °F 80.5 °F 55.4 °F 42% 29.94 in 10.0 mi SSE 10.4 mph 18.4 mph N/A   Scattered Clouds
2:15 PM 78.8 °F - 55.4 °F 44% 29.93 in 10.0 mi South 13.8 mph - N/A   Scattered Clouds
2:36 PM 80.6 °F 80.5 °F 55.4 °F 42% 29.93 in 10.0 mi South 9.2 mph - N/A   Scattered Clouds
2:55 PM 80.6 °F 80.8 °F 57.2 °F 45% 29.93 in 10.0 mi SSE 8.1 mph 18.4 mph N/A   Scattered Clouds
3:15 PM 80.6 °F 80.5 °F 55.4 °F 42% 29.92 in 10.0 mi South 8.1 mph 16.1 mph N/A   Scattered Clouds
3:36 PM 78.8 °F - 55.4 °F 44% 29.93 in 10.0 mi South 8.1 mph 11.5 mph N/A   Scattered Clouds
3:55 PM 78.8 °F - 53.6 °F 42% 29.92 in 10.0 mi South 11.5 mph 16.1 mph N/A   Mostly Cloudy
4:15 PM 80.6 °F 80.5 °F 55.4 °F 42% 29.91 in 10.0 mi SSE 11.5 mph - N/A   Mostly Cloudy
4:36 PM 82.4 °F 81.4 °F 53.6 °F 37% 29.91 in 10.0 mi SSW 6.9 mph - N/A   Scattered Clouds
4:55 PM 82.4 °F 81.7 °F 55.4 °F 39% 29.91 in 10.0 mi South 12.7 mph - N/A   Mostly Cloudy
5:15 PM 82.4 °F 81.7 °F 55.4 °F 39% 29.90 in 10.0 mi SSE 11.5 mph - N/A   Scattered Clouds
5:36 PM 80.6 °F 80.5 °F 55.4 °F 42% 29.91 in 10.0 mi Calm Calm - N/A   Mostly Cloudy
5:55 PM 80.6 °F 80.5 °F 55.4 °F 42% 29.90 in 10.0 mi Calm Calm - N/A   Mostly Cloudy
6:15 PM 78.8 °F - 55.4 °F 44% 29.90 in 10.0 mi SSE 9.2 mph - N/A   Mostly Cloudy
6:36 PM 80.6 °F 80.5 °F 55.4 °F 42% 29.90 in 10.0 mi SSE 8.1 mph - N/A   Scattered Clouds
6:55 PM 80.6 °F 80.5 °F 55.4 °F 42% 29.90 in 10.0 mi SSE 8.1 mph - N/A   Clear
7:15 PM 80.6 °F 80.5 °F 55.4 °F 42% 29.90 in 10.0 mi SE 5.8 mph - N/A   Clear
7:36 PM 80.6 °F 80.8 °F 57.2 °F 45% 29.90 in 10.0 mi Calm Calm - N/A   Scattered Clouds
7:55 PM 78.8 °F - 57.2 °F 47% 29.90 in 10.0 mi Calm Calm - N/A   Scattered Clouds
8:15 PM 78.8 °F - 57.2 °F 47% 29.90 in 10.0 mi SE 5.8 mph - N/A   Clear
8:34 PM 78.8 °F - 55.4 °F 44% 29.90 in 10.0 mi SE 3.5 mph - N/A   Scattered Clouds
8:55 PM 75.2 °F - 53.6 °F 47% 29.91 in 10.0 mi Calm Calm - N/A   Clear
9:15 PM 73.4 °F - 55.4 °F 53% 29.91 in 10.0 mi SE 3.5 mph - N/A   Clear
9:35 PM 69.8 °F - 51.8 °F 53% 29.92 in 10.0 mi Calm Calm - N/A   Clear
9:55 PM 68.0 °F - 51.8 °F 56% 29.93 in 10.0 mi Calm Calm - N/A   Clear
10:15 PM 66.2 °F - 53.6 °F 64% 29.94 in 10.0 mi Calm Calm - N/A   Clear
10:35 PM 66.2 °F - 53.6 °F 64% 29.94 in 10.0 mi Calm Calm - N/A   Clear
10:55 PM 64.4 °F - 53.6 °F 68% 29.94 in 10.0 mi Calm Calm - N/A   Clear
11:15 PM 64.4 °F - 53.6 °F 68% 29.93 in 10.0 mi Calm Calm - N/A   Clear
11:35 PM 64.4 °F - 55.4 °F 73% 29.93 in 10.0 mi Calm Calm - N/A   Clear
11:55 PM 64.4 °F - 57.2 °F 77% 29.92 in 10.0 mi SE 5.8 mph - N/A   Clear